• In Uzbekistan
  • List of Countries
  • For 7 days
  • Water Temperature
  • Satellite Maps
  • Weather Map
  • Weather Widgets
  • user-avatar
    Login

    Hourly Weather Shkoder

    Today, 22 November, Wednesday

    Time Temperature Precipitation Wind Pressure Humidity
    00:00 +5°C° 0 mm 2 mps 744 mmHg 79%
    01:00 +5°C° 0 mm 2 mps 743 mmHg 81%
    02:00 +5°C° 0 mm 2 mps 743 mmHg 82%
    03:00 +5°C° 0 mm 2 mps 743 mmHg 83%
    04:00 +5°C° 0 mm 2 mps 743 mmHg 84%
    05:00 +5°C° 0 mm 2 mps 743 mmHg 84%
    06:00 +5°C° 0 mm 2 mps 743 mmHg 83%
    07:00 +5°C° 0 mm 2 mps 743 mmHg 83%
    08:00 +7°C° 0 mm 2 mps 743 mmHg 79%
    09:00 +9°C° 0 mm 2 mps 743 mmHg 75%
    10:00 +12°C° 0 mm 1 mps 744 mmHg 70%
    11:00 +13°C° 0 mm 1 mps 743 mmHg 70%
    12:00 +13°C° 0 mm 1 mps 743 mmHg 69%
    13:00 +14°C° 0 mm 2 mps 743 mmHg 68%
    14:00 +13°C° 0 mm 1 mps 743 mmHg 74%
    15:00 +11°C° 0 mm 1 mps 742 mmHg 79%
    16:00 +10°C° 0 mm 1 mps 742 mmHg 84%
    17:00 +10°C° 0 mm 1 mps 743 mmHg 85%
    18:00 +9°C° 0 mm 1 mps 743 mmHg 86%
    19:00 +9°C° 0 mm 1 mps 743 mmHg 86%
    20:00 +9°C° 0 mm 1 mps 743 mmHg 85%
    21:00 +9°C° 0 mm 1 mps 743 mmHg 84%
    22:00 +8°C° 0 mm 2 mps 743 mmHg 83%
    23:00 +8°C° 0 mm 1 mps 743 mmHg 82%

    Tomorrow, 23 November, Thursday

    Time Temperature Precipitation Wind Pressure Humidity
    00:00 +8°C° 0 mm 1 mps 743 mmHg 81%
    01:00 +8°C° 0 mm 1 mps 743 mmHg 80%
    02:00 +8°C° 0 mm 1 mps 743 mmHg 80%
    03:00 +8°C° 0 mm 1 mps 743 mmHg 79%
    04:00 +7°C° 0 mm 2 mps 743 mmHg 79%
    05:00 +7°C° 0 mm 2 mps 743 mmHg 78%
    06:00 +7°C° 0 mm 2 mps 743 mmHg 77%
    07:00 +7°C° 0 mm 2 mps 743 mmHg 76%
    08:00 +10°C° 0 mm 1 mps 743 mmHg 71%
    09:00 +12°C° 0 mm 1 mps 743 mmHg 65%
    10:00 +14°C° 0 mm 1 mps 743 mmHg 59%
    11:00 +15°C° 0 mm 1 mps 743 mmHg 59%
    12:00 +15°C° 0 mm 1 mps 743 mmHg 60%
    13:00 +16°C° 0 mm 1 mps 743 mmHg 60%
    14:00 +14°C° 0 mm 1 mps 743 mmHg 66%
    15:00 +13°C° 0 mm 1 mps 743 mmHg 73%
    16:00 +12°C° 0 mm 1 mps 743 mmHg 79%
    17:00 +11°C° 0 mm 1 mps 743 mmHg 79%
    18:00 +11°C° 0 mm 1 mps 744 mmHg 80%
    19:00 +10°C° 0 mm 1 mps 744 mmHg 80%
    20:00 +10°C° 0 mm 1 mps 744 mmHg 78%
    21:00 +10°C° 0 mm 1 mps 744 mmHg 75%
    22:00 +10°C° 0 mm 1 mps 744 mmHg 73%
    23:00 +9°C° 0 mm 1 mps 744 mmHg 72%

    Day after tomorrow, 24 November, Friday

    Time Temperature Precipitation Wind Pressure Humidity
    00:00 +9°C° 0 mm 1 mps 744 mmHg 71%
    01:00 +9°C° 0 mm 1 mps 744 mmHg 71%
    02:00 +9°C° 0 mm 1 mps 744 mmHg 70%
    03:00 +9°C° 0 mm 1 mps 744 mmHg 70%
    04:00 +9°C° 0 mm 1 mps 744 mmHg 69%
    05:00 +9°C° 0 mm 1 mps 744 mmHg 68%
    06:00 +9°C° 0 mm 1 mps 745 mmHg 67%
    07:00 +9°C° 0 mm 1 mps 745 mmHg 66%
    08:00 +10°C° 0 mm 1 mps 745 mmHg 62%
    09:00 +11°C° 0 mm 0 mps 745 mmHg 57%
    10:00 +13°C° 0 mm 0 mps 745 mmHg 52%
    11:00 +14°C° 0 mm 0 mps 744 mmHg 53%
    12:00 +15°C° 0 mm 1 mps 744 mmHg 54%
    13:00 +16°C° 0 mm 1 mps 744 mmHg 55%
    14:00 +14°C° 0 mm 1 mps 744 mmHg 62%
    15:00 +13°C° 0 mm 1 mps 744 mmHg 69%
    16:00 +12°C° 0 mm 1 mps 744 mmHg 77%
    17:00 +11°C° 0 mm 1 mps 744 mmHg 78%
    18:00 +11°C° 0 mm 1 mps 744 mmHg 80%
    19:00 +10°C° 0 mm 1 mps 744 mmHg 81%
    20:00 +10°C° 0 mm 1 mps 745 mmHg 81%
    21:00 +10°C° 0 mm 1 mps 745 mmHg 80%
    22:00 +10°C° 0 mm 1 mps 745 mmHg 79%
    23:00 +9°C° 0 mm 1 mps 745 mmHg 79%

    25 November, Saturday

    Time Temperature Precipitation Wind Pressure Humidity
    00:00 +9°C° 0 mm 1 mps 745 mmHg 78%
    01:00 +9°C° 0 mm 1 mps 745 mmHg 77%
    02:00 +9°C° 0 mm 1 mps 744 mmHg 77%
    03:00 +9°C° 0 mm 1 mps 744 mmHg 76%
    04:00 +9°C° 0 mm 1 mps 744 mmHg 76%
    05:00 +8°C° 0 mm 1 mps 744 mmHg 75%
    06:00 +8°C° 0 mm 1 mps 744 mmHg 74%
    07:00 +8°C° 0 mm 1 mps 744 mmHg 73%
    08:00 +10°C° 0 mm 1 mps 744 mmHg 67%
    09:00 +12°C° 0 mm 1 mps 744 mmHg 62%
    10:00 +14°C° 0 mm 1 mps 744 mmHg 57%
    11:00 +14°C° 0 mm 1 mps 743 mmHg 57%
    12:00 +15°C° 0 mm 1 mps 743 mmHg 57%
    13:00 +15°C° 0 mm 2 mps 742 mmHg 57%
    14:00 +14°C° 0 mm 1 mps 742 mmHg 64%
    15:00 +13°C° 0 mm 1 mps 742 mmHg 70%
    16:00 +11°C° 0 mm 1 mps 742 mmHg 77%
    17:00 +11°C° 0 mm 1 mps 743 mmHg 78%
    18:00 +10°C° 0 mm 1 mps 743 mmHg 80%
    19:00 +10°C° 0 mm 1 mps 743 mmHg 81%
    20:00 +10°C° 0 mm 1 mps 743 mmHg 80%
    21:00 +8°C° 0 mm 2 mps 743 mmHg 79%
    22:00 +8°C° 0 mm 2 mps 744 mmHg 78%
    23:00 +9°C° 0 mm 2 mps 744 mmHg 77%

    26 November, Sunday

    Time Temperature Precipitation Wind Pressure Humidity
    00:00 +9°C° 0 mm 2 mps 744 mmHg 77%
    01:00 +9°C° 0 mm 2 mps 744 mmHg 76%
    02:00 +9°C° 0 mm 2 mps 743 mmHg 77%
    03:00 +8°C° 0 mm 2 mps 743 mmHg 77%
    04:00 +8°C° 0 mm 2 mps 743 mmHg 77%
    05:00 +8°C° 0 mm 2 mps 743 mmHg 78%
    06:00 +8°C° 0 mm 2 mps 743 mmHg 78%
    07:00 +7°C° 0 mm 2 mps 743 mmHg 79%
    08:00 +9°C° 0 mm 2 mps 743 mmHg 75%
    09:00 +12°C° 0 mm 2 mps 743 mmHg 71%
    10:00 +13°C° 0 mm 2 mps 742 mmHg 67%
    11:00 +14°C° 0 mm 2 mps 742 mmHg 67%
    12:00 +13°C° 0 mm 3 mps 741 mmHg 67%
    13:00 +14°C° 0 mm 3 mps 741 mmHg 68%
    14:00 +14°C° 0.1 mm 2 mps 740 mmHg 73%
    15:00 +13°C° 0.1 mm 2 mps 740 mmHg 77%
    16:00 +12°C° 0.1 mm 2 mps 740 mmHg 82%
    17:00 +12°C° 0.3 mm 2 mps 740 mmHg 83%
    18:00 +11°C° 0.3 mm 3 mps 740 mmHg 83%
    19:00 +11°C° 0.3 mm 3 mps 740 mmHg 84%
    20:00 +11°C° 1.2 mm 3 mps 740 mmHg 84%
    21:00 +11°C° 1.2 mm 3 mps 739 mmHg 83%
    22:00 +11°C° 1.2 mm 4 mps 739 mmHg 83%
    23:00 +11°C° 2.7 mm 4 mps 739 mmHg 86%

    27 November, Monday

    Time Temperature Precipitation Wind Pressure Humidity
    00:00 +11°C° 2.7 mm 4 mps 739 mmHg 89%
    01:00 +11°C° 2.7 mm 4 mps 738 mmHg 92%
    02:00 +11°C° 3.3 mm 4 mps 738 mmHg 93%
    03:00 +11°C° 3.3 mm 3 mps 738 mmHg 93%
    04:00 +11°C° 3.3 mm 3 mps 738 mmHg 93%
    05:00 +10°C° 0.8 mm 3 mps 738 mmHg 92%
    06:00 +10°C° 0.8 mm 2 mps 738 mmHg 91%
    07:00 +10°C° 0.8 mm 2 mps 739 mmHg 90%
    08:00 +10°C° 0.4 mm 2 mps 739 mmHg 86%
    09:00 +10°C° 0.4 mm 2 mps 739 mmHg 83%
    10:00 +10°C° 0.4 mm 2 mps 740 mmHg 80%
    11:00 +10°C° 1 mm 3 mps 740 mmHg 80%
    12:00 +10°C° 1 mm 3 mps 740 mmHg 80%
    13:00 +9°C° 1 mm 3 mps 740 mmHg 80%
    14:00 +8°C° 0.5 mm 3 mps 740 mmHg 80%
    15:00 +7°C° 0.5 mm 4 mps 741 mmHg 79%
    16:00 +6°C° 0.5 mm 4 mps 741 mmHg 79%
    17:00 +5°C° 0 mm 4 mps 742 mmHg 79%
    18:00 +4°C° 0 mm 4 mps 742 mmHg 80%
    19:00 +4°C° 0 mm 4 mps 742 mmHg 80%
    20:00 +3°C° 0 mm 4 mps 743 mmHg 80%
    21:00 +3°C° 0 mm 4 mps 743 mmHg 80%
    22:00 +1°C° 0 mm 4 mps 743 mmHg 80%
    23:00 +1°C° 0 mm 4 mps 743 mmHg 79%
    Show more